Home   Weather   Mamëzit Mali i   Past weeks
Flag for Albania

Past Weather in Mamëzit Mali i, Albania — Yesterday and Last 2 Weeks

Now
48 °F

Clear.


Feels Like: 46 °F
Forecast: 67 / 51 °F
Wind: 6 mph from Southeast

Location: Tirana Airport
Current Time: Oct 24, 2020 at 6:11:47 am
Latest Report: Oct 24, 2020 at 5:50 am
Visibility: 10 mi
Pressure30.09 "Hg
Humidity: 87%
Dew Point: 45 °F
Location of Mamëzit Mali iLocation

Past Weather in Mamëzit Mali i — Graph

°F

Mamëzit Mali i Temperature Yesterday

Maximum temperature yesterday: 73 °F (at 2:50 pm)
Minimum temperature yesterday: 43 °F (at 5:20 am)
Average temperature yesterday: 56 °F

High & Low Weather Summary for the Past Weeks

 TemperatureHumidityPressure
High79 °F (Oct 10, 1:50 pm)100% (Oct 19, 6:20 am)30.27 "Hg (Oct 19, 6:20 am)
Low41 °F (Oct 21, 6:50 am)31% (Oct 21, 12:50 pm)29.56 "Hg (Oct 13, 1:20 am)
Average59 °F77%30.04 "Hg
* Reported Oct 9 5:20 am — Oct 24 5:20 am, Mamëzit Mali i. Weather by CustomWeather, © 2020

Note: Actual official high and low records may vary slightly from our data, if they occured in-between our weather recording intervals... More about our weather records

Mamëzit Mali i Weather History for the Previous 24 Hours

Scroll right to see more
 ConditionsComfort  
Time TempWeatherWind HumidityBarometerVisibility
5:20 am
Sat, Oct 24
48 °FClear.6 mph94%30.09 "Hg10 mi
4:50 am45 °FClear.6 mph93%30.09 "Hg10 mi
4:20 am45 °FClear.3 mph93%30.12 "Hg10 mi
3:50 am46 °FClear.2 mph93%30.12 "Hg10 mi
3:20 am46 °FClear.No wind93%30.12 "Hg10 mi
2:50 am45 °FClear.3 mph93%30.12 "Hg10 mi
2:20 am48 °FClear.2 mph94%30.12 "Hg10 mi
1:50 am48 °FClear.5 mph94%30.12 "Hg10 mi
1:20 am46 °FClear.5 mph93%30.12 "Hg4 mi
12:50 am48 °FClear.2 mph94%30.12 "Hg10 mi
12:20 am50 °FClear.3 mph88%30.15 "Hg10 mi
11:50 pm
Fri, Oct 23
48 °FClear.3 mph94%30.15 "Hg10 mi
11:20 pm50 °FClear.5 mph94%30.15 "Hg10 mi
10:50 pm48 °FClear.5 mph94%30.15 "Hg10 mi
10:20 pm50 °FClear.2 mph94%30.15 "Hg5 mi
9:50 pm52 °FClear.2 mph94%30.15 "Hg10 mi
9:20 pm54 °FClear.2 mph88%30.15 "Hg10 mi
8:20 pm55 °FClear.5 mph88%30.15 "Hg10 mi
7:50 pm55 °FClear.3 mph88%30.15 "Hg10 mi
7:20 pm55 °FClear.2 mph88%30.15 "Hg10 mi
6:50 pm59 °FClear.1 mph88%30.15 "Hg10 mi
6:20 pm61 °FClear.3 mph83%30.15 "Hg10 mi
5:50 pm63 °FClear.7 mph77%30.15 "Hg10 mi
5:20 pm64 °FSunny.10 mph60%30.12 "Hg10 mi
4:50 pm70 °FSunny.8 mph53%30.12 "Hg10 mi
4:20 pm72 °FSunny.3 mph47%30.12 "Hg10 mi
3:50 pm72 °FSunny.2 mph47%30.12 "Hg10 mi
3:20 pm73 °FSunny.3 mph44%30.12 "Hg10 mi
2:50 pm73 °FSunny.3 mph50%30.12 "Hg10 mi
2:20 pm72 °FPassing clouds.5 mph50%30.15 "HgN/A
1:50 pm72 °FPassing clouds.6 mph53%30.15 "HgN/A
1:20 pm72 °FSunny.3 mph53%30.18 "Hg10 mi
12:50 pm70 °FSunny.3 mph50%30.18 "Hg10 mi
12:20 pm70 °FSunny.3 mph53%30.18 "Hg10 mi
11:50 am70 °FSunny.2 mph50%30.18 "Hg10 mi
11:20 am68 °FSunny.1 mph46%30.21 "Hg10 mi
10:50 am66 °FSunny.No wind56%30.21 "Hg10 mi
10:20 am64 °FSunny.1 mph56%30.21 "Hg10 mi
9:50 am61 °FSunny.2 mph63%30.21 "Hg10 mi
9:20 am55 °FSunny.2 mph77%30.21 "Hg10 mi
8:20 am48 °FSunny.3 mph94%30.21 "Hg10 mi
7:50 am43 °FSunny.2 mph93%30.21 "Hg10 mi
7:20 am43 °FSunny.3 mph93%30.21 "Hg10 mi
6:50 am43 °FClear.2 mph93%30.21 "Hg10 mi
6:20 am43 °FClear.2 mph93%30.21 "Hg10 mi
Weather by CustomWeather, © 2020

See weather overview